KUIPER-00620

导读

KUIPER-00620(NORAD编号69295)是亚马逊低轨星座(原柯伊伯计划)的组网通信卫星,2026年4月28日由美国联合发射联盟的宇宙神5火箭从卡纳维拉尔角太空军基地发射升空。该卫星配备相控阵天线与星间激光链路,运行于约610公里高度的低地球轨道,轨道倾角约30度,主要承担全球卫星宽带通信任务,为网络覆盖不足的偏远区域提供高速、低延迟的互联网接入服务,是亚马逊扩展全球数字连接基础设施的重要组成部分,目前处于在轨正常运作状态。

Basic Information
目录编号:
69295
目录名称:
KUIPER-00620
国际标识:
2026-118AE
轨道中心:
EARTH
卫星名称:
KUIPER-00620
卫星全名:
KUIPER-00620
卫星状态:
在轨 (已飞行106 天)
发射日期:
2026-05-29 UTC
国别 :
美国 (US)
星等 :
--
This satellite is enrolled in the Space Conjunction Data Service (SCDS) and the current flight risk assessment level is: No High Risk
Orbit Information
数据来源 国际轨道数据 AOE轨道数据
星历时间 2026-09-11T22:50:57+0800
12小时前
查看轨道信息
2026-09-06T09:00:00+0800
6天前
查看轨道信息
半长轴 7007.689km 7007.662km
偏心率 0.000025 0.0000631
轨道倾角 51.905° 51.904°
近地点辐角 111.279° 91.371°
升交点赤经 10.976° 35.637°
平近点角 248.820° 57.791°
近地点 629.376km 629.082km
远地点 629.728km 629.968km
周期 97.302分钟 97.301分钟
每日圈数 14.799279 14.799364
Detailed Information
使用方式:
暂无
2D Orbit Map
3D Orbit Map
Orbit Altitude Analysis Chart
Orbit Inclination Analysis Chart
Orbit Comprehensive Analysis Chart
View Comprehensive Chart
Miss Distance Evolution Trend with All Objects
Collision Probability Evolution Trend with All Objects